sat.trackr.live / text

‹ back to catalog

STARLINK-35550

NORAD 66267 · 2025-247C

PAYLOAD ACTIVE UNKNOWN

§ Identity

Operator
Country
US
Launch date
2025-10-31
Launch site
AFWTR
Launch vehicle
Mass (kg)
RCS (m²)

Purposes: comms

External: N2YO · Heavens-Above · Gunter

§ Orbital elements

Epoch: 2026-09-20T13:12:24.589440Z

Period
93.85 min
Inclination
53.1605°
Eccentricity
0.0001193
Mean motion
15.34374639 rev/d
Perigee alt
462.0 km
Apogee alt
463.6 km
Semi-major
6,840.9 km
B*
5.1013e-4
RAAN
1.6169°
Arg perigee
53.6559°
Mean anomaly
306.4554°
Rev number
5,093

§ Raw data

STARLINK-355501 66267U 25247C   26263.55028460  .00016884  00000+0  51013-3 0  99952 66267  53.1605   1.6169 0001193  53.6559 306.4554 15.34374639 50938

JSON: /api/v1/satellites/66267 · /tle

For live sub-satellite position, see the globe view (requires WebGL).

§ Visibility from observer

Set your observer location to see the next 7 days of passes ≥ 10°. The values pass through the URL so the page stays shareable.

No JS? Fill the form by hand. The geolocation button needs JavaScript.